KLM58K ENGM-EHAM

Flight info

Callsign KLM58K
Flight time 1h 30m
Altitude 36000
Route VIPPA DCT KUGAL DCT EEL DCT BLUFA
Aircraft B738/M-SDE2E3FGHIRWXY/LB1

Departure

Time 2026-05-06 16:19
Airport Oslo-Gardermoen International Airport (ENGM)

Arrival

Time 2026-05-06 17:50
Airport Amsterdam Airport Schiphol (EHAM)
Time Latitude Longitude Altitude Speed Heading
2026-05-06 14:56 60.19448 11.10238 684 ft 0 kts 196°
2026-05-06 16:09 60.19462 11.10245 684 ft 4 kts 196°
2026-05-06 16:09 60.19487 11.10260 684 ft 3 kts 196°
2026-05-06 16:09 60.19507 11.10273 684 ft 4 kts 213°
2026-05-06 16:09 60.19522 11.10304 683 ft 3 kts 241°
2026-05-06 16:10 60.19535 11.10351 684 ft 4 kts 241°
2026-05-06 16:10 60.19544 11.10383 683 ft 0 kts 241°
2026-05-06 16:12 60.19541 11.10378 683 ft 1 kts 224°
2026-05-06 16:13 60.19523 11.10393 683 ft 5 kts 118°
2026-05-06 16:13 60.19518 11.10507 682 ft 10 kts 94°
2026-05-06 16:13 60.19502 11.10650 682 ft 10 kts 106°
2026-05-06 16:13 60.19482 11.10788 682 ft 11 kts 106°
2026-05-06 16:14 60.19459 11.10947 681 ft 13 kts 105°
2026-05-06 16:14 60.19432 11.11146 678 ft 16 kts 106°
2026-05-06 16:14 60.19480 11.11318 681 ft 18 kts 11°
2026-05-06 16:14 60.19605 11.11388 682 ft 19 kts 16°
2026-05-06 16:15 60.19735 11.11463 683 ft 20 kts 15°
2026-05-06 16:15 60.19882 11.11548 684 ft 25 kts 15°
2026-05-06 16:15 60.20058 11.11649 681 ft 22 kts 16°
2026-05-06 16:15 60.20144 11.11699 685 ft 11 kts 17°
2026-05-06 16:16 60.20172 11.11817 682 ft 11 kts 104°
2026-05-06 16:16 60.20151 11.11960 680 ft 11 kts 105°
2026-05-06 16:16 60.20148 11.11983 685 ft 0 kts 105°
2026-05-06 16:17 60.20146 11.11997 684 ft 5 kts 105°
2026-05-06 16:17 60.20124 11.12140 684 ft 16 kts 111°
2026-05-06 16:18 60.20042 11.12203 688 ft 0 kts 195°
2026-05-06 16:18 60.20041 11.12203 688 ft 1 kts 195°
2026-05-06 16:18 60.19929 11.12139 687 ft 47 kts 196°
2026-05-06 16:19 60.19376 11.11818 678 ft 116 kts 196°
2026-05-06 16:19 60.18408 11.11255 703 ft 168 kts 198°
2026-05-06 16:19 60.17268 11.10636 1428 ft 169 kts 197°
2026-05-06 16:19 60.16114 11.10004 2168 ft 176 kts 198°
2026-05-06 16:20 60.14912 11.09312 2782 ft 194 kts 198°
2026-05-06 16:20 60.13514 11.08498 3035 ft 222 kts 199°
2026-05-06 16:20 60.11927 11.07856 3433 ft 244 kts 188°
2026-05-06 16:20 60.10152 11.07500 3976 ft 261 kts 187°
2026-05-06 16:21 60.08332 11.07152 4975 ft 262 kts 187°
2026-05-06 16:21 60.06540 11.06788 5923 ft 264 kts 188°
2026-05-06 16:21 60.04729 11.06111 6808 ft 266 kts 198°
2026-05-06 16:21 60.02968 11.04897 7726 ft 267 kts 202°
2026-05-06 16:22 60.01217 11.03565 8639 ft 270 kts 202°
2026-05-06 16:22 59.99452 11.02192 9494 ft 274 kts 203°
2026-05-06 16:22 59.97659 11.00791 10286 ft 280 kts 204°
2026-05-06 16:22 59.95769 10.99310 10543 ft 304 kts 204°
2026-05-06 16:23 59.93717 10.97702 10755 ft 328 kts 204°
2026-05-06 16:23 59.91540 10.96004 11203 ft 341 kts 204°
2026-05-06 16:23 59.89331 10.94290 11938 ft 345 kts 204°
2026-05-06 16:23 59.87085 10.92554 12792 ft 346 kts 205°
2026-05-06 16:24 59.84826 10.90813 13628 ft 348 kts 205°
2026-05-06 16:24 59.82556 10.89064 14357 ft 351 kts 205°
2026-05-06 16:24 59.80268 10.87302 15047 ft 354 kts 206°
2026-05-06 16:24 59.77989 10.85549 15722 ft 357 kts 206°
2026-05-06 16:25 59.75664 10.83762 16408 ft 360 kts 206°
2026-05-06 16:25 59.73313 10.81959 17102 ft 363 kts 206°
2026-05-06 16:25 59.70941 10.80142 17729 ft 367 kts 206°
2026-05-06 16:25 59.68542 10.78308 18336 ft 371 kts 206°
2026-05-06 16:26 59.66122 10.76460 18942 ft 373 kts 206°
2026-05-06 16:26 59.63700 10.74616 19602 ft 373 kts 206°
2026-05-06 16:26 59.61301 10.72791 20245 ft 374 kts 206°
2026-05-06 16:26 59.58866 10.70942 20841 ft 375 kts 206°
2026-05-06 16:27 59.56416 10.69084 21434 ft 377 kts 206°
2026-05-06 16:27 59.53959 10.67223 22003 ft 379 kts 206°
2026-05-06 16:27 59.51512 10.65372 22566 ft 380 kts 206°
2026-05-06 16:27 59.49026 10.63493 23107 ft 383 kts 206°
2026-05-06 16:28 59.46536 10.61615 23621 ft 384 kts 206°
2026-05-06 16:28 59.44024 10.59724 24006 ft 386 kts 206°
2026-05-06 16:28 59.41536 10.57854 24411 ft 388 kts 206°
2026-05-06 16:28 59.39000 10.55952 24851 ft 389 kts 206°
2026-05-06 16:29 59.36460 10.54049 25286 ft 390 kts 206°
2026-05-06 16:29 59.33913 10.52145 25705 ft 392 kts 206°
2026-05-06 16:29 59.31353 10.50233 26099 ft 393 kts 206°
2026-05-06 16:29 59.28820 10.48345 26591 ft 395 kts 206°
2026-05-06 16:30 59.26243 10.46427 26975 ft 396 kts 206°
2026-05-06 16:30 59.25373 10.45779 27105 ft 396 kts 206°
2026-05-06 16:30 59.21078 10.42591 27716 ft 398 kts 206°
2026-05-06 16:30 59.18482 10.40668 28040 ft 400 kts 206°
2026-05-06 16:31 59.15862 10.38730 28338 ft 402 kts 206°
2026-05-06 16:31 59.13230 10.36786 28634 ft 404 kts 206°
2026-05-06 16:31 59.10623 10.34864 28936 ft 406 kts 206°
2026-05-06 16:31 59.07974 10.32915 29336 ft 405 kts 206°
2026-05-06 16:32 59.05338 10.30981 29845 ft 402 kts 206°
2026-05-06 16:32 59.02733 10.29072 30335 ft 398 kts 206°
2026-05-06 16:32 59.00138 10.27170 30674 ft 398 kts 206°
2026-05-06 16:32 58.97545 10.25271 30931 ft 399 kts 206°
2026-05-06 16:33 58.94935 10.23365 31232 ft 399 kts 206°
2026-05-06 16:33 58.92360 10.21479 31574 ft 398 kts 206°
2026-05-06 16:33 58.89760 10.19564 31849 ft 398 kts 206°
2026-05-06 16:34 58.84590 10.15743 32385 ft 400 kts 206°
2026-05-06 16:34 58.81996 10.13831 32726 ft 399 kts 206°
2026-05-06 16:34 58.79407 10.11927 33054 ft 398 kts 206°
2026-05-06 16:34 58.77695 10.10670 33257 ft 398 kts 206°
2026-05-06 16:35 58.75108 10.08773 33553 ft 397 kts 206°
2026-05-06 16:35 58.72518 10.06877 33866 ft 397 kts 206°
2026-05-06 16:35 58.69061 10.04351 34188 ft 397 kts 206°
2026-05-06 16:35 58.66507 10.02487 34330 ft 399 kts 206°
2026-05-06 16:36 58.64748 10.01205 34419 ft 401 kts 206°
2026-05-06 16:36 58.62170 9.99329 34577 ft 401 kts 205°
2026-05-06 16:36 58.59553 9.97428 34750 ft 402 kts 205°
2026-05-06 16:36 58.56929 9.95526 34910 ft 404 kts 205°
2026-05-06 16:37 58.54294 9.93619 35091 ft 405 kts 205°
2026-05-06 16:37 58.51652 9.91710 35280 ft 406 kts 205°
2026-05-06 16:37 58.49002 9.89799 35435 ft 407 kts 205°
2026-05-06 16:37 58.46345 9.87885 35602 ft 408 kts 205°
2026-05-06 16:38 58.43680 9.85969 35776 ft 409 kts 205°
2026-05-06 16:38 58.41005 9.84049 35929 ft 410 kts 205°
2026-05-06 16:38 58.38355 9.82149 36081 ft 412 kts 205°
2026-05-06 16:38 58.35667 9.80226 36256 ft 412 kts 205°
2026-05-06 16:39 58.32975 9.78303 36414 ft 413 kts 205°
2026-05-06 16:39 58.30274 9.76376 36562 ft 414 kts 205°
2026-05-06 16:39 58.27572 9.74453 36728 ft 415 kts 205°
2026-05-06 16:39 58.24888 9.72544 36872 ft 416 kts 205°
2026-05-06 16:40 58.22167 9.70613 37016 ft 417 kts 205°
2026-05-06 16:40 58.19438 9.68679 37148 ft 419 kts 205°
2026-05-06 16:40 58.16692 9.66736 37300 ft 419 kts 205°
2026-05-06 16:40 58.13958 9.64806 37459 ft 420 kts 205°
2026-05-06 16:41 58.11248 9.62895 37562 ft 421 kts 204°
2026-05-06 16:41 58.08502 9.60962 37742 ft 421 kts 204°
2026-05-06 16:41 58.05750 9.59029 37900 ft 421 kts 204°
2026-05-06 16:42 58.00225 9.55154 37960 ft 425 kts 204°
2026-05-06 16:42 57.94676 9.51278 37965 ft 424 kts 204°
2026-05-06 16:43 57.89185 9.47456 37968 ft 422 kts 204°
2026-05-06 16:43 57.83668 9.43628 37951 ft 421 kts 204°
2026-05-06 16:44 57.78180 9.39830 37961 ft 419 kts 204°
2026-05-06 16:44 57.72736 9.36075 37974 ft 418 kts 204°
2026-05-06 16:45 57.67273 9.32319 37966 ft 418 kts 204°
2026-05-06 16:45 57.61795 9.28564 37971 ft 418 kts 204°
2026-05-06 16:46 57.56351 9.24845 37967 ft 418 kts 204°
2026-05-06 16:46 57.50877 9.21118 37966 ft 419 kts 204°
2026-05-06 16:47 57.45416 9.17411 37972 ft 420 kts 204°
2026-05-06 16:47 57.39922 9.13694 37970 ft 421 kts 204°
2026-05-06 16:48 57.34402 9.09972 37974 ft 421 kts 204°
2026-05-06 16:48 57.28918 9.06285 37971 ft 422 kts 203°
2026-05-06 16:49 57.23380 9.02574 37976 ft 422 kts 203°
2026-05-06 16:49 57.17875 8.98897 37975 ft 423 kts 203°
2026-05-06 16:50 57.12334 8.95208 37974 ft 423 kts 203°
2026-05-06 16:50 57.06783 8.91524 37972 ft 423 kts 203°
2026-05-06 16:51 57.01263 8.87872 37964 ft 423 kts 203°
2026-05-06 16:51 56.95717 8.84215 37995 ft 423 kts 203°
2026-05-06 16:52 56.90170 8.80567 37981 ft 423 kts 203°
2026-05-06 16:52 56.84629 8.76936 37968 ft 423 kts 203°
2026-05-06 16:53 56.79081 8.73312 37950 ft 423 kts 203°
2026-05-06 16:53 56.73554 8.69712 37956 ft 423 kts 202°
2026-05-06 16:54 56.68002 8.66108 37968 ft 423 kts 202°
2026-05-06 16:54 56.62445 8.62511 37961 ft 423 kts 202°
2026-05-06 16:55 56.56929 8.58953 37971 ft 424 kts 202°
2026-05-06 16:55 56.51366 8.55375 37961 ft 423 kts 202°
2026-05-06 16:56 56.45791 8.51801 37967 ft 424 kts 202°
2026-05-06 16:56 56.40260 8.48266 37966 ft 424 kts 202°
2026-05-06 16:57 56.34664 8.44699 37963 ft 424 kts 202°
2026-05-06 16:57 56.29115 8.41175 37962 ft 425 kts 202°
2026-05-06 16:58 56.23530 8.37638 37953 ft 425 kts 202°
2026-05-06 16:58 56.17967 8.34126 37959 ft 425 kts 202°
2026-05-06 16:59 56.12375 8.30607 37948 ft 425 kts 202°
2026-05-06 16:59 56.06784 8.27099 37960 ft 425 kts 202°
2026-05-06 17:00 56.01218 8.23618 37930 ft 426 kts 202°
2026-05-06 17:00 55.95608 8.20120 37957 ft 426 kts 202°
2026-05-06 17:01 55.90027 8.16650 37962 ft 426 kts 202°
2026-05-06 17:01 55.84419 8.13174 37958 ft 427 kts 202°
2026-05-06 17:02 55.78805 8.09706 37958 ft 428 kts 202°
2026-05-06 17:02 55.73177 8.06239 37962 ft 428 kts 202°
2026-05-06 17:03 55.67536 8.02775 37964 ft 428 kts 202°
2026-05-06 17:03 55.61926 7.99340 37952 ft 429 kts 202°
2026-05-06 17:04 55.56282 7.95896 37956 ft 429 kts 202°
2026-05-06 17:04 55.50641 7.92458 37939 ft 429 kts 202°
2026-05-06 17:05 55.45000 7.89027 37952 ft 429 kts 202°
2026-05-06 17:05 55.39355 7.85612 37957 ft 429 kts 202°
2026-05-06 17:06 55.33715 7.82212 37954 ft 429 kts 202°
2026-05-06 17:06 55.28072 7.78820 37951 ft 429 kts 202°
2026-05-06 17:07 55.22426 7.75437 37949 ft 429 kts 201°
2026-05-06 17:07 55.16781 7.72064 37951 ft 429 kts 201°
2026-05-06 17:08 55.11126 7.68696 37959 ft 429 kts 201°
2026-05-06 17:08 55.05468 7.65336 37954 ft 430 kts 201°
2026-05-06 17:09 54.99797 7.61977 37944 ft 430 kts 201°
2026-05-06 17:09 54.94122 7.58819 37952 ft 431 kts 200°
2026-05-06 17:10 54.88382 7.55748 37950 ft 431 kts 200°
2026-05-06 17:10 54.82651 7.52681 37950 ft 432 kts 200°
2026-05-06 17:11 54.76907 7.49597 37925 ft 432 kts 200°
2026-05-06 17:11 54.71192 7.46529 37940 ft 432 kts 200°
2026-05-06 17:12 54.65436 7.43447 37943 ft 432 kts 200°
2026-05-06 17:12 54.59679 7.40372 37938 ft 433 kts 200°
2026-05-06 17:13 54.53929 7.37312 37940 ft 433 kts 200°
2026-05-06 17:13 54.48193 7.34268 37936 ft 433 kts 199°
2026-05-06 17:14 54.42418 7.31212 37937 ft 433 kts 199°
2026-05-06 17:14 54.36642 7.28164 37938 ft 433 kts 199°
2026-05-06 17:15 54.30870 7.25128 37770 ft 436 kts 199°
2026-05-06 17:15 54.27956 7.23597 37000 ft 439 kts 199°
2026-05-06 17:15 54.25082 7.22090 36381 ft 435 kts 199°
2026-05-06 17:15 54.22173 7.20570 35729 ft 428 kts 199°
2026-05-06 17:16 54.19390 7.19118 35122 ft 421 kts 199°
2026-05-06 17:16 54.16602 7.17665 34393 ft 417 kts 199°
2026-05-06 17:16 54.13815 7.16211 33270 ft 421 kts 199°
2026-05-06 17:16 54.11001 7.14744 32335 ft 419 kts 199°
2026-05-06 17:17 54.08266 7.13323 31633 ft 412 kts 199°
2026-05-06 17:17 54.05547 7.11913 30978 ft 404 kts 199°
2026-05-06 17:17 54.02875 7.10529 30268 ft 398 kts 198°
2026-05-06 17:17 54.00231 7.09161 29462 ft 393 kts 198°
2026-05-06 17:18 53.97626 7.07814 28619 ft 389 kts 198°
2026-05-06 17:18 53.95081 7.06500 27801 ft 385 kts 198°
2026-05-06 17:18 53.92514 7.05177 26986 ft 382 kts 199°
2026-05-06 17:18 53.89976 7.03870 26351 ft 376 kts 199°
2026-05-06 17:19 53.87485 7.02589 26195 ft 380 kts 199°
2026-05-06 17:19 53.84939 7.01279 26078 ft 383 kts 199°
2026-05-06 17:19 53.82378 6.99964 25970 ft 388 kts 199°
2026-05-06 17:19 53.79783 6.98633 25937 ft 390 kts 199°
2026-05-06 17:20 53.77169 6.97295 25936 ft 392 kts 199°
2026-05-06 17:20 53.74524 6.95943 25937 ft 401 kts 199°
2026-05-06 17:20 53.71836 6.94569 25937 ft 411 kts 198°
2026-05-06 17:20 53.69071 6.93159 25939 ft 418 kts 198°
2026-05-06 17:21 53.66263 6.91730 25930 ft 422 kts 198°
2026-05-06 17:21 53.63461 6.90308 25915 ft 420 kts 198°
2026-05-06 17:21 53.61601 6.89365 25916 ft 418 kts 198°
2026-05-06 17:21 53.58815 6.87955 25915 ft 416 kts 198°
2026-05-06 17:22 53.56039 6.86551 25918 ft 415 kts 199°
2026-05-06 17:22 53.53262 6.85147 25910 ft 416 kts 198°
2026-05-06 17:22 53.50522 6.83763 25909 ft 417 kts 198°
2026-05-06 17:22 53.47728 6.82354 25927 ft 418 kts 198°
2026-05-06 17:23 53.44929 6.80945 25928 ft 420 kts 198°
2026-05-06 17:23 53.42119 6.79532 25916 ft 422 kts 198°
2026-05-06 17:23 53.39310 6.78078 25926 ft 424 kts 201°
2026-05-06 17:23 53.36582 6.76080 25928 ft 431 kts 207°
2026-05-06 17:24 53.33873 6.73829 25928 ft 438 kts 208°
2026-05-06 17:24 53.31159 6.71542 25924 ft 444 kts 208°
2026-05-06 17:24 53.28376 6.69213 25917 ft 448 kts 207°
2026-05-06 17:24 53.25651 6.66961 25913 ft 447 kts 207°
2026-05-06 17:25 53.22778 6.64616 25907 ft 447 kts 207°
2026-05-06 17:25 53.19967 6.62339 25902 ft 447 kts 207°
2026-05-06 17:25 53.17188 6.60099 25908 ft 448 kts 207°
2026-05-06 17:25 53.14365 6.57829 25893 ft 449 kts 207°
2026-05-06 17:26 53.11591 6.55605 25798 ft 432 kts 207°
2026-05-06 17:26 53.08935 6.53479 25707 ft 415 kts 207°
2026-05-06 17:26 53.06380 6.51437 25605 ft 399 kts 207°
2026-05-06 17:26 53.03905 6.49458 25329 ft 390 kts 207°
2026-05-06 17:27 53.01692 6.47687 24646 ft 386 kts 207°
2026-05-06 17:27 52.99293 6.45771 23945 ft 380 kts 207°
2026-05-06 17:27 52.96913 6.43872 23192 ft 376 kts 207°
2026-05-06 17:27 52.94571 6.42007 22362 ft 372 kts 207°
2026-05-06 17:28 52.92242 6.40153 21537 ft 369 kts 208°
2026-05-06 17:28 52.89930 6.38316 20770 ft 366 kts 208°
2026-05-06 17:28 52.87640 6.36498 20006 ft 363 kts 207°
2026-05-06 17:28 52.85403 6.34581 19259 ft 359 kts 215°
2026-05-06 17:29 52.83441 6.32063 18539 ft 355 kts 225°
2026-05-06 17:29 52.81806 6.29141 18087 ft 345 kts 235°
2026-05-06 17:29 52.80424 6.25930 17641 ft 341 kts 237°
2026-05-06 17:29 52.79080 6.22695 17221 ft 339 kts 238°
2026-05-06 17:30 52.77751 6.19485 16814 ft 337 kts 238°
2026-05-06 17:30 52.76439 6.16330 16429 ft 335 kts 238°
2026-05-06 17:30 52.75122 6.13180 16053 ft 333 kts 237°
2026-05-06 17:30 52.73801 6.10034 15664 ft 331 kts 237°
2026-05-06 17:31 52.72493 6.06928 15275 ft 329 kts 237°
2026-05-06 17:31 52.71183 6.03830 14899 ft 327 kts 237°
2026-05-06 17:31 52.69896 6.00791 14536 ft 326 kts 238°
2026-05-06 17:31 52.68598 5.97730 14158 ft 325 kts 237°
2026-05-06 17:32 52.67301 5.94677 13782 ft 325 kts 237°
2026-05-06 17:32 52.65998 5.91613 13353 ft 325 kts 237°
2026-05-06 17:32 52.64705 5.88579 12951 ft 323 kts 237°
2026-05-06 17:32 52.63417 5.85559 12555 ft 321 kts 237°
2026-05-06 17:33 52.62134 5.82553 12172 ft 320 kts 237°
2026-05-06 17:33 52.60858 5.79569 11796 ft 317 kts 236°
2026-05-06 17:33 52.59590 5.76607 11425 ft 315 kts 237°
2026-05-06 17:33 52.58348 5.73708 11067 ft 313 kts 237°
2026-05-06 17:34 52.57093 5.70781 10701 ft 311 kts 236°
2026-05-06 17:34 52.55849 5.67884 10418 ft 307 kts 236°
2026-05-06 17:34 52.54632 5.65054 10285 ft 298 kts 237°
2026-05-06 17:34 52.53450 5.62309 10143 ft 289 kts 237°
2026-05-06 17:35 52.52301 5.59645 10018 ft 281 kts 237°
2026-05-06 17:35 52.51203 5.57098 9896 ft 273 kts 237°
2026-05-06 17:35 52.50184 5.54510 9801 ft 269 kts 240°
2026-05-06 17:36 52.48248 5.49185 9611 ft 276 kts 242°
2026-05-06 17:36 52.47258 5.46454 9486 ft 279 kts 241°
2026-05-06 17:36 52.46258 5.43711 9350 ft 281 kts 241°
2026-05-06 17:36 52.45236 5.40921 9131 ft 287 kts 240°
2026-05-06 17:37 52.44199 5.38099 8906 ft 291 kts 240°
2026-05-06 17:37 52.43147 5.35249 8674 ft 293 kts 240°
2026-05-06 17:37 52.42045 5.32424 8436 ft 293 kts 238°
2026-05-06 17:37 52.40926 5.29641 8200 ft 291 kts 238°
2026-05-06 17:38 52.39828 5.26927 7960 ft 288 kts 237°
2026-05-06 17:38 52.38728 5.24207 7714 ft 285 kts 237°
2026-05-06 17:38 52.37645 5.21514 7498 ft 282 kts 237°
2026-05-06 17:38 52.36573 5.18842 7272 ft 281 kts 237°
2026-05-06 17:39 52.35505 5.16167 7057 ft 282 kts 237°
2026-05-06 17:39 52.34424 5.13454 6830 ft 285 kts 237°
2026-05-06 17:39 52.33343 5.10724 6619 ft 286 kts 237°
2026-05-06 17:39 52.32266 5.07990 6398 ft 284 kts 237°
2026-05-06 17:40 52.31207 5.05292 6148 ft 281 kts 238°
2026-05-06 17:40 52.30152 5.02606 5910 ft 279 kts 238°
2026-05-06 17:40 52.29106 4.99958 5666 ft 276 kts 238°
2026-05-06 17:40 52.28067 4.97339 5439 ft 272 kts 238°
2026-05-06 17:41 52.27052 4.94790 5207 ft 270 kts 238°
2026-05-06 17:41 52.26031 4.92232 4992 ft 266 kts 237°
2026-05-06 17:41 52.25023 4.89703 4763 ft 264 kts 238°
2026-05-06 17:41 52.24029 4.87216 4554 ft 260 kts 237°
2026-05-06 17:42 52.23047 4.84759 4348 ft 262 kts 237°
2026-05-06 17:42 52.22056 4.82276 4154 ft 259 kts 237°
2026-05-06 17:42 52.21074 4.79816 3955 ft 257 kts 237°
2026-05-06 17:42 52.20108 4.77385 3770 ft 253 kts 237°
2026-05-06 17:43 52.19154 4.74982 3591 ft 253 kts 237°
2026-05-06 17:43 52.18206 4.72591 3455 ft 248 kts 238°
2026-05-06 17:43 52.17267 4.70242 3235 ft 245 kts 238°
2026-05-06 17:43 52.16359 4.67986 3009 ft 238 kts 237°
2026-05-06 17:44 52.15454 4.65743 2799 ft 230 kts 238°
2026-05-06 17:44 52.14641 4.63589 2587 ft 221 kts 250°
2026-05-06 17:44 52.14484 4.61235 2433 ft 203 kts 288°
2026-05-06 17:44 52.15177 4.59359 2331 ft 190 kts 325°
2026-05-06 17:45 52.16238 4.58172 2232 ft 182 kts 332°
2026-05-06 17:45 52.17298 4.57077 2111 ft 180 kts 332°
2026-05-06 17:45 52.18354 4.55989 2024 ft 180 kts 332°
2026-05-06 17:45 52.19504 4.55312 1995 ft 174 kts
2026-05-06 17:46 52.20601 4.55918 2019 ft 165 kts 32°
2026-05-06 17:46 52.21581 4.56859 1996 ft 161 kts 32°
2026-05-06 17:46 52.22526 4.57773 1992 ft 158 kts 36°
2026-05-06 17:46 52.23243 4.59088 2012 ft 154 kts 56°
2026-05-06 17:47 52.23850 4.60552 1889 ft 156 kts 56°
2026-05-06 17:47 52.24434 4.62031 1689 ft 150 kts 56°
2026-05-06 17:47 52.24985 4.63465 1491 ft 148 kts 56°
2026-05-06 17:47 52.25515 4.64852 1305 ft 140 kts 56°
2026-05-06 17:48 52.26028 4.66193 1091 ft 137 kts 56°
2026-05-06 17:48 52.26526 4.67493 903 ft 134 kts 55°
2026-05-06 17:48 52.27019 4.68781 722 ft 134 kts 56°
2026-05-06 17:48 52.27514 4.70108 538 ft 138 kts 57°
2026-05-06 17:49 52.28018 4.71403 346 ft 135 kts 57°
2026-05-06 17:49 52.28524 4.72720 192 ft 138 kts 57°
2026-05-06 17:49 52.29037 4.74048 5 ft 136 kts 58°
2026-05-06 17:49 52.29495 4.75245 -3 ft 110 kts 57°
2026-05-06 17:50 52.29829 4.76113 -5 ft 56 kts 57°
2026-05-06 17:50 52.29995 4.76508 -3 ft 39 kts 36°
2026-05-06 17:50 52.30158 4.76651 -2 ft 5 kts 28°
2026-05-06 17:50 52.30161 4.76653 -2 ft 0 kts 28°
2026-05-06 17:51 52.30166 4.76658 -2 ft 3 kts 27°
2026-05-06 17:51 52.30207 4.76693 -2 ft 11 kts 28°
2026-05-06 17:51 52.30289 4.76777 -2 ft 17 kts 44°
2026-05-06 17:52 52.30360 4.76947 -2 ft 19 kts 57°
2026-05-06 17:52 52.30428 4.77125 -2 ft 18 kts 58°
2026-05-06 17:52 52.30494 4.77297 -2 ft 18 kts 58°
2026-05-06 17:52 52.30559 4.77464 -2 ft 17 kts 57°
2026-05-06 17:53 52.30642 4.77591 -2 ft 17 kts 15°
2026-05-06 17:53 52.30762 4.77598 -2 ft 17 kts
2026-05-06 17:53 52.30834 4.77483 -2 ft 16 kts 276°
2026-05-06 17:53 52.30844 4.77379 -2 ft 6 kts 309°
2026-05-06 17:54 52.30868 4.77364 -2 ft 3 kts 353°
2026-05-06 17:54 52.30888 4.77366 -2 ft 2 kts
2026-05-06 17:54 52.30890 4.77366 -2 ft 0 kts